Other Surface Observations
Issued by NWS Charleston, SC

Home | Current Version | Previous Version | Text Only | Print | Product List | Glossary On
Versions: 1 2 3 4 5 6 7 8 9 10 11 12 13 14 15 16 17 18 19 20 21 22 23 24 25 26 27 28 29 30 31 32 33 34 35 36 37 38 39 40 41 42 43 44 45 46 47 48 49 50
000
SXUS52 KCHS 212012
OSOCHS

Marine Observations
National Weather Service Charleston SC
400 PM EDT SAT APR 21 2018

...Downtown Charleston and Harbor...

CITY           SKY/WX    TMP DP  RH WIND       PRES   REMARKS
Waterfront Prk NOT AVBL

...Lake Moultrie...

CITY           SKY/WX    TMP DP  RH WIND       PRES   REMARKS
Pinopolis        N/A     70  48  46 E5        30.24F

...Lake and Supplemental Coastal Observations...

STATION/POSITION TIME  TEMP    WIND        PRES    WAVE   SWELL
                       AIR SEA DIR/SP/G            HT/PER HT/PER/DIR
                 (UTC) (F)     (DEG/KT/KT) (MB)    (FT/S) (FT/S/D)
Fort Pulaski     1948   64 64   70/ 18/ 23 1026.3F
Sapelo Island    1900   67      50/  7     1025.0
Winyah Bay       1845   61      80/ 14     1028.0
Lake Murray      1920   68     100/  5/  7 1026.1F
ACE Basin NERRS  1845   69     350/  5       N/A


...C-MAN and Buoy Observations...

STATION/POSITION TIME  TEMP    WIND        PRES    WAVE   SWELL
                       AIR SEA DIR/SP/G            HT/PER HT/PER/DIR
                 (UTC) (F)     (DEG/KT/KT) (MB)    (FT/S) (FT/S/D)
Buoy 41004       2000   66 67   70/ 14/ 17 1026.2
Buoy 41008       1950   66 65   70/ 14/ 16 1024.3F   5/ 8   3/110/ 8
Folly Beach CMAN 2000   63      50/ 19/ 22 1027.4F
Pritchards Islan NOT AVBL
Capers NS Buoy   1908   62 63   60/ 17/ 21 1027.5F
Fripp NS Buoy    1908   63 63   70/ 16/ 23 1026.0F
5E St. Marys GA  2000      66                N/A     5/ 7   2/ 70/11


STATION/POSITION TIME  TEMP    WIND        PRES    WAVE   SWELL
                       AIR SEA DIR/SP/G            HT/PER HT/PER/DIR
                 (UTC) (F)     (DEG/KT/KT) (MB)    (FT/S) (FT/S/D)
Frying Pan Buoy  2000   62 67   50/ 16/ 21 1027.6
Buoy 41025       1950   56 71   30/ 12/ 16 1029.2F   4/ 8   3/ 60/ 8
Cape Lookout NC  2000           80/ 12/ 13 1029.0F
Buoy 41002       2000   65 73   50/ 14/ 17 1026.1
Buoy 41010       1950   72 76   70/ 19/ 25 1022.7F   8/ 7   2/ 60/15
St Augustine FL  2000   70 67  100/ 14/ 16 1022.9F

$$




USA.gov is the U.S. government's official web portal to all federal, state and local government web resources and services.